EZS59GQ LFKJ-LSGG

Flight info

Callsign EZS59GQ
Flight time 1h 0m
Altitude 28000
Route TORTU1R TORTU DCT ERTEV DCT TOP/N0360F220 DCT AOSTA L615 BANKO
Aircraft A320/M-SDE2E3FGHIJ1RWXYZ/LB1

Departure

Time 2026-04-23 15:19
Airport Ajaccio Napoléon Bonaparte airport (LFKJ)

Arrival

Time 2026-04-23 16:20
Airport Geneva International Airport (LSGG)
Time Latitude Longitude Altitude Speed Heading
2026-04-23 14:45 41.91849 8.79505 21 ft 0 kts 345°
2026-04-23 15:10 41.91855 8.79510 21 ft 2 kts 33°
2026-04-23 15:11 41.91863 8.79558 24 ft 7 kts 78°
2026-04-23 15:11 41.91898 8.79605 21 ft 8 kts 25°
2026-04-23 15:11 41.91944 8.79634 21 ft 7 kts 25°
2026-04-23 15:11 41.91985 8.79660 21 ft 6 kts 25°
2026-04-23 15:12 41.92037 8.79692 21 ft 9 kts 25°
2026-04-23 15:12 41.92092 8.79726 21 ft 8 kts 25°
2026-04-23 15:12 41.92143 8.79758 21 ft 9 kts 25°
2026-04-23 15:12 41.92206 8.79797 21 ft 10 kts 25°
2026-04-23 15:13 41.92267 8.79835 21 ft 9 kts 27°
2026-04-23 15:13 41.92290 8.79903 21 ft 8 kts 94°
2026-04-23 15:13 41.92285 8.79984 21 ft 8 kts 95°
2026-04-23 15:13 41.92283 8.80010 22 ft 0 kts 95°
2026-04-23 15:16 41.92280 8.80055 22 ft 11 kts 95°
2026-04-23 15:16 41.92280 8.80154 23 ft 10 kts 72°
2026-04-23 15:16 41.92353 8.80221 26 ft 19 kts 25°
2026-04-23 15:17 41.92499 8.80312 22 ft 24 kts 25°
2026-04-23 15:17 41.92644 8.80402 25 ft 22 kts 25°
2026-04-23 15:17 41.92777 8.80484 24 ft 20 kts 25°
2026-04-23 15:17 41.92895 8.80558 26 ft 18 kts 25°
2026-04-23 15:18 41.93017 8.80634 28 ft 19 kts 25°
2026-04-23 15:18 41.93113 8.80652 25 ft 12 kts 354°
2026-04-23 15:18 41.93149 8.80697 25 ft 7 kts 123°
2026-04-23 15:18 41.93107 8.80689 30 ft 7 kts 205°
2026-04-23 15:19 41.93038 8.80647 27 ft 25 kts 204°
2026-04-23 15:19 41.92633 8.80395 24 ft 100 kts 205°
2026-04-23 15:19 41.91821 8.79891 56 ft 152 kts 205°
2026-04-23 15:19 41.90889 8.79280 813 ft 148 kts 212°
2026-04-23 15:20 41.90405 8.78637 1253 ft 153 kts 238°
2026-04-23 15:20 41.89653 8.76833 1858 ft 180 kts 240°
2026-04-23 15:20 41.89020 8.75260 2280 ft 204 kts 240°
2026-04-23 15:20 41.88318 8.73544 2941 ft 218 kts 242°
2026-04-23 15:21 41.87566 8.71733 3801 ft 225 kts 242°
2026-04-23 15:21 41.86779 8.69870 4614 ft 234 kts 240°
2026-04-23 15:21 41.86197 8.67794 5362 ft 244 kts 264°
2026-04-23 15:21 41.86363 8.65529 6206 ft 247 kts 292°
2026-04-23 15:22 41.87264 8.63589 7015 ft 247 kts 320°
2026-04-23 15:22 41.88605 8.62150 7878 ft 247 kts 329°
2026-04-23 15:22 41.90134 8.61144 8802 ft 245 kts 346°
2026-04-23 15:22 41.91800 8.60766 9742 ft 245 kts
2026-04-23 15:23 41.93559 8.61037 10217 ft 266 kts 17°
2026-04-23 15:23 41.95323 8.62073 10573 ft 289 kts 28°
2026-04-23 15:23 41.97169 8.63371 11043 ft 307 kts 28°
2026-04-23 15:23 41.99080 8.64709 11852 ft 312 kts 28°
2026-04-23 15:24 42.01018 8.66062 12721 ft 315 kts 28°
2026-04-23 15:24 42.02974 8.67421 13595 ft 318 kts 28°
2026-04-23 15:24 42.04955 8.68792 14392 ft 322 kts 28°
2026-04-23 15:24 42.06953 8.70176 15119 ft 325 kts 28°
2026-04-23 15:25 42.08977 8.71582 15829 ft 329 kts 28°
2026-04-23 15:25 42.11019 8.73005 16529 ft 333 kts 28°
2026-04-23 15:25 42.13091 8.74448 17219 ft 337 kts 28°
2026-04-23 15:25 42.15188 8.75911 17936 ft 341 kts 28°
2026-04-23 15:26 42.17311 8.77390 18594 ft 346 kts 28°
2026-04-23 15:26 42.19460 8.78887 19177 ft 350 kts 28°
2026-04-23 15:26 42.21631 8.80403 19796 ft 353 kts 28°
2026-04-23 15:26 42.23839 8.81891 20422 ft 356 kts 23°
2026-04-23 15:27 42.26219 8.82877 21013 ft 361 kts 12°
2026-04-23 15:27 42.28734 8.83263 21582 ft 366 kts
2026-04-23 15:27 42.31280 8.83544 22169 ft 369 kts
2026-04-23 15:27 42.33854 8.83828 22726 ft 372 kts
2026-04-23 15:28 42.36447 8.84119 23303 ft 376 kts
2026-04-23 15:28 42.39073 8.84413 23848 ft 380 kts
2026-04-23 15:28 42.41718 8.84710 24323 ft 383 kts
2026-04-23 15:28 42.44386 8.85010 24767 ft 386 kts
2026-04-23 15:29 42.47072 8.85313 25227 ft 389 kts
2026-04-23 15:29 42.49778 8.85617 25677 ft 392 kts
2026-04-23 15:29 42.52506 8.85923 26112 ft 395 kts
2026-04-23 15:29 42.55251 8.86230 26554 ft 397 kts
2026-04-23 15:30 42.58014 8.86544 26970 ft 400 kts
2026-04-23 15:30 42.60798 8.86862 27416 ft 403 kts
2026-04-23 15:30 42.63603 8.87185 27846 ft 406 kts
2026-04-23 15:30 42.66392 8.87506 28117 ft 411 kts
2026-04-23 15:31 42.69210 8.87827 28162 ft 399 kts
2026-04-23 15:31 42.71929 8.88132 28170 ft 388 kts
2026-04-23 15:31 42.74640 8.88436 28170 ft 384 kts
2026-04-23 15:32 42.79961 8.89041 28178 ft 383 kts
2026-04-23 15:32 42.85230 8.89648 28194 ft 383 kts
2026-04-23 15:33 42.90533 8.90254 28194 ft 383 kts
2026-04-23 15:33 42.95839 8.90864 28202 ft 382 kts
2026-04-23 15:34 43.01143 8.91471 28202 ft 382 kts
2026-04-23 15:34 43.06442 8.92083 28198 ft 382 kts
2026-04-23 15:35 43.11738 8.92697 28193 ft 382 kts
2026-04-23 15:35 43.17033 8.93307 28195 ft 382 kts
2026-04-23 15:36 43.21472 8.93817 28198 ft 382 kts
2026-04-23 15:36 43.26777 8.94429 28199 ft 382 kts
2026-04-23 15:37 43.32083 8.95052 28192 ft 383 kts
2026-04-23 15:37 43.37352 8.95663 28194 ft 383 kts
2026-04-23 15:38 43.42676 8.96023 28197 ft 384 kts
2026-04-23 15:38 43.48022 8.95958 28185 ft 385 kts
2026-04-23 15:39 43.53373 8.95854 28190 ft 384 kts
2026-04-23 15:39 43.58719 8.95674 28194 ft 387 kts 353°
2026-04-23 15:39 43.61304 8.94549 28196 ft 391 kts 342°
2026-04-23 15:40 43.63851 8.93218 28196 ft 392 kts 342°
2026-04-23 15:40 43.68956 8.90547 28188 ft 392 kts 342°
2026-04-23 15:41 43.73892 8.87309 28193 ft 396 kts 332°
2026-04-23 15:41 43.78617 8.83386 28195 ft 396 kts 332°
2026-04-23 15:42 43.83336 8.79453 28193 ft 396 kts 332°
2026-04-23 15:42 43.88052 8.75502 28194 ft 396 kts 332°
2026-04-23 15:43 43.92766 8.71544 28177 ft 396 kts 332°
2026-04-23 15:43 43.97487 8.67587 28177 ft 397 kts 332°
2026-04-23 15:44 44.02220 8.63616 28177 ft 398 kts 332°
2026-04-23 15:44 44.06952 8.59623 28180 ft 398 kts 332°
2026-04-23 15:45 44.11685 8.55631 28170 ft 398 kts 332°
2026-04-23 15:45 44.16418 8.51633 28181 ft 398 kts 332°
2026-04-23 15:46 44.21109 8.47659 28179 ft 398 kts 332°
2026-04-23 15:46 44.25838 8.43648 28185 ft 398 kts 332°
2026-04-23 15:47 44.30565 8.39625 28184 ft 398 kts 332°
2026-04-23 15:47 44.35286 8.35595 28180 ft 398 kts 332°
2026-04-23 15:48 44.40010 8.31568 28157 ft 398 kts 332°
2026-04-23 15:48 44.44735 8.27529 28157 ft 399 kts 332°
2026-04-23 15:49 44.49468 8.23467 28167 ft 399 kts 332°
2026-04-23 15:49 44.54202 8.19400 28167 ft 399 kts 332°
2026-04-23 15:50 44.58929 8.15327 28159 ft 399 kts 331°
2026-04-23 15:50 44.63663 8.11245 28161 ft 399 kts 331°
2026-04-23 15:51 44.68394 8.07159 28166 ft 399 kts 331°
2026-04-23 15:51 44.73122 8.03072 28155 ft 399 kts 331°
2026-04-23 15:52 44.77850 7.98971 28157 ft 399 kts 331°
2026-04-23 15:52 44.82584 7.94860 28151 ft 400 kts 331°
2026-04-23 15:53 44.87322 7.90728 28150 ft 401 kts 331°
2026-04-23 15:53 44.92038 7.86632 28152 ft 400 kts 334°
2026-04-23 15:54 44.97108 7.83506 28153 ft 398 kts 341°
2026-04-23 15:54 45.02223 7.80520 28157 ft 398 kts 340°
2026-04-23 15:55 45.07336 7.77522 28154 ft 398 kts 340°
2026-04-23 15:55 45.12456 7.74525 28149 ft 398 kts 341°
2026-04-23 15:56 45.17572 7.71521 28155 ft 398 kts 341°
2026-04-23 15:56 45.22691 7.68511 28148 ft 399 kts 340°
2026-04-23 15:57 45.27817 7.65481 28147 ft 399 kts 340°
2026-04-23 15:57 45.32953 7.62453 28146 ft 399 kts 340°
2026-04-23 15:58 45.38080 7.59419 28177 ft 400 kts 340°
2026-04-23 15:58 45.43223 7.56372 28178 ft 400 kts 340°
2026-04-23 15:59 45.48361 7.53310 28175 ft 400 kts 340°
2026-04-23 15:59 45.53494 7.50251 28170 ft 400 kts 341°
2026-04-23 16:00 45.58630 7.47191 28195 ft 400 kts 341°
2026-04-23 16:00 45.63758 7.44126 28196 ft 399 kts 340°
2026-04-23 16:01 45.68881 7.41042 28197 ft 400 kts 340°
2026-04-23 16:01 45.73949 7.37923 28120 ft 401 kts 335°
2026-04-23 16:01 45.76261 7.35673 28117 ft 405 kts 321°
2026-04-23 16:02 45.78180 7.32702 28116 ft 409 kts 307°
2026-04-23 16:02 45.79581 7.29162 28114 ft 411 kts 293°
2026-04-23 16:02 45.80394 7.25230 27987 ft 412 kts 279°
2026-04-23 16:02 45.80741 7.21173 27719 ft 409 kts 277°
2026-04-23 16:03 45.81059 7.17135 27462 ft 407 kts 277°
2026-04-23 16:03 45.81379 7.13114 27209 ft 405 kts 277°
2026-04-23 16:03 45.81749 7.09135 26905 ft 400 kts 282°
2026-04-23 16:03 45.82526 7.05338 26435 ft 395 kts 293°
2026-04-23 16:04 45.83745 7.01846 25999 ft 388 kts 304°
2026-04-23 16:04 45.85250 6.98670 25569 ft 384 kts 307°
2026-04-23 16:04 45.86760 6.95529 25117 ft 381 kts 306°
2026-04-23 16:04 45.88255 6.92399 24679 ft 379 kts 306°
2026-04-23 16:05 45.89257 6.90292 24365 ft 378 kts 306°
2026-04-23 16:05 45.91146 6.86116 23770 ft 376 kts 297°
2026-04-23 16:05 45.92115 6.82619 23028 ft 380 kts 291°
2026-04-23 16:05 45.93013 6.79013 22171 ft 387 kts 290°
2026-04-23 16:06 45.93911 6.75327 21382 ft 392 kts 290°
2026-04-23 16:06 45.94801 6.71627 20821 ft 391 kts 290°
2026-04-23 16:06 45.95683 6.67945 20347 ft 388 kts 290°
2026-04-23 16:06 45.96558 6.64290 19851 ft 384 kts 290°
2026-04-23 16:07 45.97429 6.60662 19215 ft 386 kts 290°
2026-04-23 16:07 45.98315 6.56979 18368 ft 394 kts 290°
2026-04-23 16:07 45.99212 6.53251 17661 ft 394 kts 290°
2026-04-23 16:07 46.00106 6.49534 17071 ft 392 kts 290°
2026-04-23 16:08 46.00996 6.45831 16521 ft 390 kts 290°
2026-04-23 16:08 46.01878 6.42160 16002 ft 387 kts 290°
2026-04-23 16:08 46.02730 6.38597 15601 ft 371 kts 290°
2026-04-23 16:08 46.03544 6.35179 15240 ft 352 kts 290°
2026-04-23 16:09 46.04321 6.31911 14867 ft 342 kts 290°
2026-04-23 16:09 46.05090 6.28682 14516 ft 340 kts 290°
2026-04-23 16:09 46.05853 6.25468 14138 ft 339 kts 289°
2026-04-23 16:09 46.06611 6.22268 13744 ft 337 kts 289°
2026-04-23 16:10 46.07365 6.19079 13322 ft 335 kts 289°
2026-04-23 16:10 46.08098 6.15907 12913 ft 333 kts 285°
2026-04-23 16:10 46.08372 6.12610 12520 ft 332 kts 267°
2026-04-23 16:10 46.07935 6.09381 12108 ft 328 kts 249°
2026-04-23 16:11 46.06850 6.06529 11699 ft 324 kts 230°
2026-04-23 16:11 46.05314 6.04185 11310 ft 321 kts 223°
2026-04-23 16:11 46.03760 6.01950 10924 ft 309 kts 223°
2026-04-23 16:11 46.02277 5.99815 10624 ft 294 kts 223°
2026-04-23 16:12 46.00863 5.97779 10319 ft 285 kts 223°
2026-04-23 16:12 45.99462 5.95766 9953 ft 284 kts 224°
2026-04-23 16:12 45.98066 5.93757 9559 ft 284 kts 225°
2026-04-23 16:12 45.97017 5.91383 9155 ft 285 kts 253°
2026-04-23 16:13 45.96971 5.88579 8768 ft 283 kts 287°
2026-04-23 16:13 45.99227 5.84324 8004 ft 258 kts 316°
2026-04-23 16:13 46.00521 5.82612 7642 ft 249 kts 329°
2026-04-23 16:14 46.02102 5.81798 7284 ft 239 kts 357°
2026-04-23 16:14 46.03698 5.82131 6921 ft 230 kts 25°
2026-04-23 16:14 46.04982 5.83422 6560 ft 225 kts 45°
2026-04-23 16:14 46.06073 5.85013 6180 ft 222 kts 45°
2026-04-23 16:15 46.07161 5.86601 5814 ft 224 kts 45°
2026-04-23 16:15 46.08264 5.88207 5426 ft 226 kts 44°
2026-04-23 16:15 46.09357 5.89794 5151 ft 219 kts 44°
2026-04-23 16:15 46.10404 5.91318 4869 ft 210 kts 44°
2026-04-23 16:16 46.11407 5.92777 4592 ft 205 kts 44°
2026-04-23 16:16 46.12392 5.94212 4336 ft 195 kts 44°
2026-04-23 16:16 46.13329 5.95576 4073 ft 189 kts 44°
2026-04-23 16:16 46.14244 5.96910 3826 ft 185 kts 44°
2026-04-23 16:17 46.15149 5.98230 3591 ft 184 kts 44°
2026-04-23 16:17 46.16042 5.99535 3339 ft 181 kts 44°
2026-04-23 16:17 46.16902 6.00792 3098 ft 171 kts 45°
2026-04-23 16:17 46.17700 6.01957 2912 ft 153 kts 44°
2026-04-23 16:18 46.18406 6.02988 2699 ft 138 kts 45°
2026-04-23 16:18 46.19065 6.03951 2506 ft 133 kts 45°
2026-04-23 16:18 46.19704 6.04886 2330 ft 130 kts 44°
2026-04-23 16:18 46.20344 6.05822 2151 ft 130 kts 44°
2026-04-23 16:19 46.20975 6.06745 1965 ft 129 kts 44°
2026-04-23 16:19 46.21600 6.07663 1811 ft 128 kts 45°
2026-04-23 16:19 46.22228 6.08580 1616 ft 129 kts 44°
2026-04-23 16:19 46.22852 6.09496 1441 ft 128 kts 45°
2026-04-23 16:20 46.23406 6.10309 1397 ft 93 kts 45°
2026-04-23 16:20 46.23741 6.10801 1381 ft 44 kts 45°
2026-04-23 16:20 46.23854 6.10968 1378 ft 11 kts 46°
2026-04-23 16:20 46.23854 6.11062 1377 ft 12 kts 146°
2026-04-23 16:21 46.23778 6.11084 1380 ft 9 kts 171°
2026-04-23 16:21 46.23712 6.11078 1385 ft 10 kts 203°
2026-04-23 16:21 46.23656 6.11008 1386 ft 10 kts 225°
2026-04-23 16:21 46.23611 6.10942 1387 ft 9 kts 225°
2026-04-23 16:22 46.23570 6.10882 1386 ft 8 kts 225°
2026-04-23 16:22 46.23531 6.10824 1389 ft 8 kts 225°
2026-04-23 16:22 46.23494 6.10795 1396 ft 5 kts 163°
2026-04-23 16:22 46.23468 6.10826 1403 ft 5 kts 136°
2026-04-23 16:23 46.23456 6.10843 1393 ft 1 kts 136°
2026-04-23 16:23 46.23454 6.10845 1393 ft 0 kts 136°